Regional Weather Roundup
Issued by NWS

Home | Current Version | Previous Version | Text Only | Print | Product List | Glossary Off
Versions: 1 2 3 4 5 6 7 8 9 10 11 12 13 14 15 16 17 18 19 20 21 22 23 24 25 26 27 28 29 30 31 32 33 34 35 36 37 38 39 40 41 42 43 44 45 46 47 48 49 50

000
ASUS45 KPSR 291510
RWRAZ

ARIZONA HOURLY REGIONAL WEATHER ROUNDUP
NATIONAL WEATHER SERVICE PHOENIX AZ
800 AM MST WED MAR 29 2017

NOTE: FAIR INDICATES FEW OR NO CLOUDS BELOW 12,000 FEET WITH NO
SIGNIFICANT WEATHER AND/OR OBSTRUCTIONS TO VISIBILITY.

AZZ001>003-036-291600-
NORTHWEST ARIZONA

CITY           SKY/WX    TMP DP  RH WIND       PRES   REMARKS
BULLHEAD CITY  SUNNY     64  28  25 N16       30.10R
KINGMAN        SUNNY     49  16  26 E8        30.15R
$$

AZZ004>008-015-016-018-291600-
NORTH CENTRAL ARIZONA

CITY           SKY/WX    TMP DP  RH WIND       PRES   REMARKS
GRAND CANYON   SUNNY     40  27  59 CALM      30.17R
WILLIAMS       SUNNY     43  23  45 NE16      30.15S
PRESCOTT       SUNNY     46  25  43 NW14      30.13R
FLAGSTAFF      SUNNY     43  21  41 E9        30.12R
PAYSON         SUNNY     50  23  34 NE8G17    30.11R
PAGE           SUNNY     50  22  33 N5        30.15R
$$

AZZ009>014-017-291600-
NORTHEAST ARIZONA

CITY           SKY/WX    TMP DP  RH WIND       PRES   REMARKS
WINSLOW        SUNNY     48  25  40 NW18G24   30.12R
SAINT JOHNS    MOSUNNY   42  30  62 W15       30.07R
WINDOW ROCK    SUNNY     42  28  57 N15G23    30.05R
SHOW LOW       MOSUNNY   34  23  64 N3        30.12S
$$

AZZ023-291600-
GREATER PHOENIX AREA

CITY           SKY/WX    TMP DP  RH WIND       PRES   REMARKS
PHOENIX        MOSUNNY   62  29  28 SW3       29.98R
BUCKEYE        SUNNY     63  27  25 N12       30.01R
GLENDALE       SUNNY     63  30  29 CALM      30.01
LUKE AFB       SUNNY     63  31  30 CALM      29.99R
DEER VALLEY    SUNNY     64  28  25 N7        29.99R
SCOTTSDALE     SUNNY     61  34  36 CALM      30.00R
MESA-FALCON    SUNNY    N/A N/A N/A N6        29.97R
MESA-GATEWAY   SUNNY     55  30  38 CALM      30.00R
CHANDLER       SUNNY     59  32  36 NE3       29.99R
$$

AZZ027-028-291600-
SOUTHWEST MARICOPA COUNTY AND PINAL COUNTY

CITY           SKY/WX    TMP DP  RH WIND       PRES   REMARKS
CASA GRANDE    NOT AVBL
GILA BEND      SUNNY     61  21  21 S2        29.99R
$$

AZZ503-504-507>509-291600-
SOUTHEAST ARIZONA

CITY           SKY/WX    TMP DP  RH WIND       PRES   REMARKS
TUCSON         SUNNY     53  29  39 S3        30.03R
DAVIS-MONTHAN  SUNNY     55  29  36 SE6       30.02R
NOGALES        SUNNY     51  25  36 CALM      30.03R
SIERRA VISTA   SUNNY     54  21  27 NW13      30.05S
DOUGLAS        SUNNY     52  27  38 W6        30.03R
SAFFORD        SUNNY     55  32  41 NW16      29.98R
$$

AZZ020-021-025-026-031-291600-
SOUTHWEST ARIZONA

CITY           SKY/WX    TMP DP  RH WIND       PRES   REMARKS
YUMA           SUNNY     69  27  20 NW12      30.01R
$$

CAZ031-033-041-043-047-048-061-291600-
SOUTHERN CALIFORNIA

CITY           SKY/WX    TMP DP  RH WIND       PRES   REMARKS
DOWNTOWN L.A.  SUNNY     60  49  66 CALM      30.03R
L.A. AIRPORT   MOSUNNY   59  54  83 CALM      30.04R
SAN DIEGO      MOSUNNY   59  41  51 N3        30.04R
BURBANK        SUNNY     60  34  37 CALM      30.03R
ONTARIO        MOSUNNY   62  34  35 N5        30.04R
RIVERSIDE      SUNNY     58  36  43 SW3       30.04R
PALM SPRINGS   SUNNY     73  26  17 NW8G21    30.04R
EL CENTRO NAS  MOSUNNY   58  28  32 SW8       30.04R
IMPERIAL       SUNNY     58  31  35 SW3       30.02R
BLYTHE         SUNNY     69  27  20 N12       30.05R
NEEDLES        SUNNY     66  26  22 NW9       30.09R
$$

NVZ020-UTZ003-291600-
SOUTHERN NEVADA-UTAH

CITY           SKY/WX    TMP DP  RH WIND       PRES   REMARKS
LAS VEGAS      MOSUNNY   59  25  27 CALM      30.16R
SALT LAKE CITY PTSUNNY   40  31  70 SE8       30.25S WCI  34
$$

NMZ009-TXZ055-291600-
NEW MEXICO-WEST TEXAS

CITY           SKY/WX    TMP DP  RH WIND       PRES   REMARKS
ALBUQUERQUE    CLOUDY    46  38  73 N15       29.99R
EL PASO        PTSUNNY   54  32  43 NW13      29.93R
$$


........................KEY........................
SKY/WX - SKY CONDITION/WEATHER
TMP    - TEMPERATURE IN FAHRENHEIT
DP     - DEW POINT IN FAHRENHEIT
RH     - RELATIVE HUMIDITY IN PERCENT
WIND   - DIRECTION AND SPEED IN MILES PER HOUR (MPH)
VRB    - VARIABLE WIND DIRECTION
PRES   - MEAN SEA LEVEL PRESSURE IN INCHES OF MERCURY
         F - FALLING PRESSURE   R - RISING PRESSURE
         S - STEADY PRESSURE
VSB    - VISIBILITY IN MILES
HX     - HEAT INDEX IN FAHRENHEIT
WCI    - WIND CHILL INDEX IN FAHRENHEIT
TC     - TEMPERATURE IN CELSIUS WHICH IS ALSO KNOWN AS
         TEMPERATURE IN CENTIGRADE
AFB    - AIR FORCE BASE
         LUKE AFB IS LUKE AIR FORCE BASE
         DAVIS-MONTHAN IS DAVIS-MONTHAN AIR FORCE BASE
NAS    - NAVAL AIR STATION
         EL CENTRO NAS IS EL CENTRO NAVAL AIR STATION
N/A    - NOT AVAILABLE




USA.gov is the U.S. government's official web portal to all federal, state and local government web resources and services.